LHX8MB EDDG-EDDN

Flight info

Callsign LHX8MB
Flight time 0h 54m
Altitude 23000
Route DOMEG2C DOMEG Z841 GMH Q603 TESGA Z719 ETOLU Z723 KOMIB T193 ERTES T194 DODAS DODAS1T
Aircraft A20N/M-SDE2E3FGHIRWXY/LB1

Departure

Time 2026-04-17 21:51
Airport Münster Osnabrück Airport (EDDG)

Arrival

Time 2026-04-17 22:46
Airport Nuremberg Airport (EDDN)
Time Latitude Longitude Altitude Speed Heading
2026-04-17 21:19 52.13179 7.69453 164 ft 0 kts 194°
2026-04-17 21:47 52.13177 7.69447 164 ft 1 kts 227°
2026-04-17 21:47 52.13178 7.69441 164 ft 0 kts 266°
2026-04-17 21:47 52.13189 7.69417 164 ft 6 kts 304°
2026-04-17 21:47 52.13201 7.69390 164 ft 5 kts 307°
2026-04-17 21:48 52.13245 7.69328 164 ft 12 kts 333°
2026-04-17 21:48 52.13337 7.69273 164 ft 15 kts 341°
2026-04-17 21:48 52.13367 7.69257 164 ft 5 kts 341°
2026-04-17 21:48 52.13425 7.69236 163 ft 13 kts
2026-04-17 21:49 52.13482 7.69367 164 ft 18 kts 69°
2026-04-17 21:49 52.13523 7.69576 164 ft 21 kts 73°
2026-04-17 21:49 52.13572 7.69815 164 ft 10 kts 72°
2026-04-17 21:49 52.13599 7.69945 162 ft 16 kts 66°
2026-04-17 21:50 52.13708 7.70028 162 ft 21 kts 349°
2026-04-17 21:50 52.13760 7.69875 166 ft 16 kts 251°
2026-04-17 21:50 52.13757 7.69862 166 ft 0 kts 250°
2026-04-17 21:50 52.13757 7.69861 166 ft 1 kts 250°
2026-04-17 21:51 52.13721 7.69695 166 ft 52 kts 250°
2026-04-17 21:51 52.13504 7.68667 165 ft 134 kts 251°
2026-04-17 21:51 52.13143 7.66946 521 ft 178 kts 251°
2026-04-17 21:51 52.12576 7.65047 1242 ft 199 kts 229°
2026-04-17 21:52 52.11386 7.63881 1960 ft 207 kts 196°
2026-04-17 21:52 52.09904 7.63572 2662 ft 225 kts 182°
2026-04-17 21:52 52.08280 7.63554 3393 ft 238 kts 180°
2026-04-17 21:52 52.06554 7.63524 4128 ft 260 kts 182°
2026-04-17 21:53 52.04744 7.63400 4722 ft 266 kts 184°
2026-04-17 21:53 52.02887 7.63195 4959 ft 268 kts 185°
2026-04-17 21:53 52.01008 7.62943 5357 ft 273 kts 185°
2026-04-17 21:53 51.99088 7.62667 6575 ft 273 kts 185°
2026-04-17 21:54 51.97223 7.62398 8057 ft 276 kts 185°
2026-04-17 21:54 51.95279 7.62118 8978 ft 283 kts 185°
2026-04-17 21:54 51.93304 7.61838 9489 ft 286 kts 185°
2026-04-17 21:54 51.91307 7.61557 9775 ft 288 kts 185°
2026-04-17 21:55 51.89308 7.61277 9955 ft 289 kts 185°
2026-04-17 21:55 51.87267 7.60991 10179 ft 304 kts 185°
2026-04-17 21:55 51.85058 7.60682 10710 ft 331 kts 185°
2026-04-17 21:55 51.82721 7.60356 11804 ft 340 kts 185°
2026-04-17 21:56 51.80346 7.60026 12988 ft 346 kts 185°
2026-04-17 21:56 51.77928 7.59690 14113 ft 352 kts 185°
2026-04-17 21:56 51.75460 7.59346 15205 ft 358 kts 185°
2026-04-17 21:56 51.72958 7.59073 16248 ft 364 kts 180°
2026-04-17 21:57 51.70413 7.59382 17256 ft 370 kts 171°
2026-04-17 21:57 51.67927 7.60384 18215 ft 376 kts 161°
2026-04-17 21:57 51.65446 7.61823 19154 ft 382 kts 160°
2026-04-17 21:57 51.62927 7.63283 20068 ft 387 kts 160°
2026-04-17 21:58 51.60372 7.64753 20954 ft 392 kts 160°
2026-04-17 21:58 51.57783 7.66232 21808 ft 398 kts 161°
2026-04-17 21:58 51.55156 7.67728 22522 ft 403 kts 161°
2026-04-17 21:58 51.52499 7.69237 22849 ft 406 kts 161°
2026-04-17 21:59 51.49829 7.70751 22978 ft 407 kts 161°
2026-04-17 21:59 51.47158 7.72264 23000 ft 407 kts 161°
2026-04-17 21:59 51.44491 7.73773 23001 ft 407 kts 161°
2026-04-17 21:59 51.41815 7.75285 23000 ft 407 kts 161°
2026-04-17 22:00 51.39142 7.76794 23000 ft 408 kts 161°
2026-04-17 22:00 51.36468 7.78302 23000 ft 408 kts 161°
2026-04-17 22:00 51.33793 7.79810 23001 ft 408 kts 161°
2026-04-17 22:00 51.31111 7.81320 23000 ft 408 kts 161°
2026-04-17 22:01 51.28436 7.82824 23000 ft 408 kts 161°
2026-04-17 22:01 51.25759 7.84327 23000 ft 408 kts 161°
2026-04-17 22:01 51.23114 7.85811 23001 ft 408 kts 161°
2026-04-17 22:01 51.20402 7.87330 23001 ft 408 kts 161°
2026-04-17 22:02 51.17782 7.88908 22999 ft 409 kts 156°
2026-04-17 22:02 51.15254 7.90998 23001 ft 409 kts 149°
2026-04-17 22:02 51.12863 7.93438 23001 ft 408 kts 147°
2026-04-17 22:02 51.10475 7.95892 23000 ft 409 kts 147°
2026-04-17 22:03 51.08081 7.98340 23000 ft 409 kts 147°
2026-04-17 22:03 51.05681 8.00784 23000 ft 410 kts 147°
2026-04-17 22:03 51.03278 8.03225 23000 ft 410 kts 147°
2026-04-17 22:03 51.00878 8.05658 23000 ft 409 kts 148°
2026-04-17 22:04 50.98478 8.08085 23000 ft 409 kts 148°
2026-04-17 22:04 50.96078 8.10508 23000 ft 408 kts 148°
2026-04-17 22:04 50.93677 8.12928 23000 ft 409 kts 148°
2026-04-17 22:04 50.91274 8.15349 23000 ft 409 kts 148°
2026-04-17 22:05 50.88875 8.17762 23000 ft 409 kts 148°
2026-04-17 22:05 50.86473 8.20177 23000 ft 409 kts 148°
2026-04-17 22:05 50.84070 8.22587 23000 ft 409 kts 148°
2026-04-17 22:05 50.81664 8.24999 23000 ft 409 kts 148°
2026-04-17 22:06 50.79260 8.27405 23000 ft 409 kts 148°
2026-04-17 22:06 50.76857 8.29808 23000 ft 408 kts 148°
2026-04-17 22:06 50.74455 8.32206 22999 ft 408 kts 148°
2026-04-17 22:06 50.72086 8.34569 23000 ft 408 kts 148°
2026-04-17 22:07 50.69682 8.36964 23000 ft 408 kts 148°
2026-04-17 22:07 50.67285 8.39349 22999 ft 408 kts 148°
2026-04-17 22:07 50.64881 8.41737 23000 ft 408 kts 148°
2026-04-17 22:07 50.62478 8.44122 23000 ft 408 kts 148°
2026-04-17 22:08 50.60075 8.46504 23000 ft 408 kts 148°
2026-04-17 22:08 50.57676 8.48880 23000 ft 407 kts 148°
2026-04-17 22:08 50.55274 8.51255 23000 ft 407 kts 148°
2026-04-17 22:08 50.52871 8.53628 23000 ft 408 kts 148°
2026-04-17 22:09 50.50464 8.56002 23000 ft 408 kts 148°
2026-04-17 22:09 50.48055 8.58376 23000 ft 408 kts 148°
2026-04-17 22:09 50.45653 8.60742 23000 ft 408 kts 147°
2026-04-17 22:09 50.43368 8.63377 23000 ft 409 kts 140°
2026-04-17 22:10 50.41141 8.66141 23000 ft 408 kts 147°
2026-04-17 22:10 50.38703 8.68429 23000 ft 408 kts 151°
2026-04-17 22:10 50.36221 8.70566 23001 ft 407 kts 152°
2026-04-17 22:10 50.33725 8.72685 22999 ft 407 kts 150°
2026-04-17 22:11 50.31420 8.75248 23000 ft 407 kts 137°
2026-04-17 22:11 50.29621 8.78592 23000 ft 408 kts 123°
2026-04-17 22:11 50.28285 8.82493 23001 ft 408 kts 114°
2026-04-17 22:11 50.27263 8.86635 23001 ft 408 kts 109°
2026-04-17 22:12 50.26397 8.90864 23000 ft 408 kts 107°
2026-04-17 22:12 50.25525 8.95091 23000 ft 408 kts 108°
2026-04-17 22:12 50.24620 8.99296 23000 ft 408 kts 109°
2026-04-17 22:12 50.23699 9.03501 23001 ft 408 kts 109°
2026-04-17 22:13 50.22776 9.07694 23001 ft 408 kts 109°
2026-04-17 22:13 50.21853 9.11888 23001 ft 408 kts 109°
2026-04-17 22:13 50.20931 9.16078 23001 ft 408 kts 109°
2026-04-17 22:13 50.20006 9.20274 23001 ft 408 kts 109°
2026-04-17 22:14 50.19099 9.24473 23000 ft 409 kts 107°
2026-04-17 22:14 50.18458 9.28792 23001 ft 408 kts 99°
2026-04-17 22:14 50.18182 9.33203 23000 ft 410 kts 92°
2026-04-17 22:14 50.18217 9.37646 23000 ft 410 kts 88°
2026-04-17 22:15 50.18285 9.42097 23000 ft 410 kts 89°
2026-04-17 22:15 50.18345 9.46549 23000 ft 410 kts 89°
2026-04-17 22:15 50.18400 9.51001 23000 ft 410 kts 89°
2026-04-17 22:15 50.18452 9.55384 23000 ft 410 kts 89°
2026-04-17 22:16 50.18504 9.59827 23000 ft 409 kts 89°
2026-04-17 22:16 50.18552 9.64267 23000 ft 409 kts 90°
2026-04-17 22:16 50.18272 9.68676 22999 ft 409 kts 103°
2026-04-17 22:16 50.17511 9.72955 23001 ft 409 kts 106°
2026-04-17 22:17 50.16706 9.77215 22999 ft 409 kts 107°
2026-04-17 22:17 50.15885 9.81464 22999 ft 409 kts 107°
2026-04-17 22:17 50.15053 9.85703 23000 ft 409 kts 107°
2026-04-17 22:17 50.14214 9.89942 23000 ft 409 kts 107°
2026-04-17 22:18 50.13372 9.94175 23001 ft 409 kts 107°
2026-04-17 22:18 50.12530 9.98403 23000 ft 409 kts 107°
2026-04-17 22:18 50.11683 10.02643 22999 ft 409 kts 107°
2026-04-17 22:18 50.10836 10.06876 23000 ft 409 kts 107°
2026-04-17 22:19 50.09989 10.11105 23000 ft 409 kts 107°
2026-04-17 22:19 50.09139 10.15332 23001 ft 409 kts 107°
2026-04-17 22:19 50.08299 10.19507 23000 ft 409 kts 107°
2026-04-17 22:19 50.07406 10.23772 22999 ft 409 kts 110°
2026-04-17 22:20 50.06280 10.27771 23000 ft 409 kts 116°
2026-04-17 22:20 50.05050 10.31762 23000 ft 409 kts 115°
2026-04-17 22:20 50.03825 10.35759 23000 ft 409 kts 115°
2026-04-17 22:20 50.02603 10.39752 22952 ft 409 kts 115°
2026-04-17 22:21 50.01380 10.43741 22578 ft 408 kts 115°
2026-04-17 22:21 50.00569 10.46385 22065 ft 410 kts 115°
2026-04-17 22:21 49.99333 10.50407 21261 ft 410 kts 116°
2026-04-17 22:21 49.98112 10.54372 20601 ft 403 kts 116°
2026-04-17 22:22 49.96896 10.58257 19913 ft 396 kts 119°
2026-04-17 22:22 49.95267 10.61649 19232 ft 389 kts 136°
2026-04-17 22:22 49.93104 10.64099 18569 ft 383 kts 153°
2026-04-17 22:22 49.90643 10.65583 17914 ft 377 kts 162°
2026-04-17 22:23 49.88164 10.66829 17257 ft 371 kts 162°
2026-04-17 22:23 49.85717 10.68037 16616 ft 367 kts 162°
2026-04-17 22:23 49.83335 10.69238 15989 ft 362 kts 162°
2026-04-17 22:23 49.80961 10.70477 15353 ft 358 kts 160°
2026-04-17 22:24 49.78678 10.71954 14730 ft 354 kts 157°
2026-04-17 22:24 49.76435 10.73457 14107 ft 349 kts 155°
2026-04-17 22:24 49.74443 10.75559 13419 ft 347 kts 136°
2026-04-17 22:24 49.73058 10.78624 12599 ft 350 kts 113°
2026-04-17 22:25 49.72479 10.82223 12068 ft 343 kts 98°
2026-04-17 22:25 49.72148 10.85847 11479 ft 338 kts 98°
2026-04-17 22:25 49.71831 10.89421 10879 ft 334 kts 98°
2026-04-17 22:25 49.71510 10.92949 10290 ft 329 kts 98°
2026-04-17 22:26 49.71185 10.96413 9921 ft 319 kts 98°
2026-04-17 22:26 49.70868 10.99716 9764 ft 302 kts 98°
2026-04-17 22:26 49.70561 11.02876 9421 ft 294 kts 98°
2026-04-17 22:26 49.70260 11.05959 9151 ft 285 kts 98°
2026-04-17 22:27 49.69964 11.08970 8989 ft 292 kts 98°
2026-04-17 22:27 49.69657 11.12086 8789 ft 290 kts 98°
2026-04-17 22:27 49.69336 11.15092 8686 ft 277 kts 104°
2026-04-17 22:27 49.68510 11.17670 8554 ft 263 kts 130°
2026-04-17 22:28 49.67114 11.19360 8444 ft 250 kts 155°
2026-04-17 22:28 49.65457 11.19970 8160 ft 245 kts 180°
2026-04-17 22:28 49.63772 11.19656 7818 ft 244 kts 190°
2026-04-17 22:28 49.62100 11.19237 7482 ft 243 kts 191°
2026-04-17 22:29 49.60565 11.18247 7146 ft 240 kts 219°
2026-04-17 22:29 49.59567 11.16228 6812 ft 238 kts 249°
2026-04-17 22:29 49.59368 11.13728 6476 ft 237 kts 277°
2026-04-17 22:29 49.59623 11.11225 6166 ft 236 kts 279°
2026-04-17 22:30 49.59885 11.08730 5888 ft 234 kts 279°
2026-04-17 22:30 49.60139 11.06248 5794 ft 237 kts 279°
2026-04-17 22:30 49.60384 11.03784 5787 ft 235 kts 278°
2026-04-17 22:30 49.60627 11.01294 5787 ft 235 kts 278°
2026-04-17 22:31 49.60868 10.98800 5787 ft 235 kts 278°
2026-04-17 22:31 49.61108 10.96313 5787 ft 235 kts 278°
2026-04-17 22:31 49.61348 10.93818 5787 ft 235 kts 278°
2026-04-17 22:31 49.61588 10.91325 5787 ft 235 kts 278°
2026-04-17 22:32 49.61828 10.88827 5787 ft 235 kts 278°
2026-04-17 22:32 49.62067 10.86327 5787 ft 235 kts 278°
2026-04-17 22:32 49.62306 10.83833 5787 ft 235 kts 278°
2026-04-17 22:32 49.62544 10.81337 5787 ft 235 kts 278°
2026-04-17 22:33 49.62782 10.78843 5787 ft 235 kts 278°
2026-04-17 22:33 49.63019 10.76349 5787 ft 235 kts 278°
2026-04-17 22:33 49.63256 10.73855 5787 ft 235 kts 278°
2026-04-17 22:33 49.63491 10.71374 5699 ft 232 kts 278°
2026-04-17 22:34 49.63724 10.68907 5408 ft 232 kts 278°
2026-04-17 22:34 49.63956 10.66442 5131 ft 231 kts 278°
2026-04-17 22:34 49.64187 10.63990 5090 ft 235 kts 278°
2026-04-17 22:34 49.64417 10.61538 5047 ft 232 kts 278°
2026-04-17 22:35 49.64648 10.59069 5026 ft 233 kts 278°
2026-04-17 22:35 49.64773 10.56593 4991 ft 231 kts 263°
2026-04-17 22:35 49.64214 10.54340 4916 ft 223 kts 234°
2026-04-17 22:35 49.63050 10.52833 4793 ft 222 kts 205°
2026-04-17 22:36 49.61539 10.52275 4788 ft 224 kts 188°
2026-04-17 22:36 49.59996 10.51959 4784 ft 224 kts 188°
2026-04-17 22:36 49.58454 10.51635 4769 ft 224 kts 188°
2026-04-17 22:36 49.56904 10.51588 4751 ft 224 kts 166°
2026-04-17 22:37 49.55562 10.52761 4735 ft 223 kts 133°
2026-04-17 22:37 49.54877 10.54821 4681 ft 215 kts 100°
2026-04-17 22:37 49.54734 10.57058 4618 ft 206 kts 94°
2026-04-17 22:37 49.54616 10.59216 4538 ft 199 kts 96°
2026-04-17 22:38 49.54440 10.61313 4372 ft 197 kts 98°
2026-04-17 22:38 49.54239 10.63370 4180 ft 197 kts 98°
2026-04-17 22:38 49.54034 10.65449 4000 ft 194 kts 98°
2026-04-17 22:38 49.53832 10.67508 3985 ft 199 kts 98°
2026-04-17 22:39 49.53627 10.69588 4005 ft 195 kts 98°
2026-04-17 22:39 49.53425 10.71643 3981 ft 196 kts 98°
2026-04-17 22:39 49.53020 10.75765 3948 ft 193 kts 98°
2026-04-17 22:40 49.52827 10.77731 3878 ft 175 kts 98°
2026-04-17 22:40 49.52657 10.79459 3781 ft 150 kts 98°
2026-04-17 22:40 49.52511 10.80945 3787 ft 134 kts 98°
2026-04-17 22:40 49.52373 10.82342 3785 ft 131 kts 98°
2026-04-17 22:41 49.52237 10.83730 3792 ft 131 kts 98°
2026-04-17 22:41 49.52100 10.85120 3684 ft 131 kts 98°
2026-04-17 22:41 49.51964 10.86504 3516 ft 130 kts 98°
2026-04-17 22:41 49.51829 10.87879 3355 ft 130 kts 98°
2026-04-17 22:42 49.51694 10.89250 3180 ft 129 kts 98°
2026-04-17 22:42 49.51560 10.90617 3010 ft 129 kts 98°
2026-04-17 22:42 49.51427 10.91964 2839 ft 129 kts 98°
2026-04-17 22:42 49.51294 10.93325 2672 ft 128 kts 98°
2026-04-17 22:43 49.51160 10.94681 2502 ft 128 kts 98°
2026-04-17 22:43 49.51027 10.96033 2336 ft 128 kts 98°
2026-04-17 22:43 49.50895 10.97382 2160 ft 127 kts 99°
2026-04-17 22:43 49.50762 10.98728 1993 ft 127 kts 99°
2026-04-17 22:44 49.50631 11.00068 1825 ft 127 kts 98°
2026-04-17 22:44 49.50499 11.01408 1657 ft 126 kts 98°
2026-04-17 22:44 49.50368 11.02742 1486 ft 126 kts 98°
2026-04-17 22:44 49.50237 11.04072 1323 ft 126 kts 98°
2026-04-17 22:45 49.50106 11.05396 1156 ft 125 kts 98°
2026-04-17 22:45 49.49975 11.06712 1028 ft 123 kts 99°
2026-04-17 22:45 49.49870 11.07794 1034 ft 74 kts 98°
2026-04-17 22:45 49.49802 11.08485 1035 ft 78 kts 99°
2026-04-17 22:46 49.49732 11.09193 1054 ft 51 kts 97°
2026-04-17 22:46 49.49659 11.09569 1061 ft 27 kts 155°
2026-04-17 22:46 49.49531 11.09509 1054 ft 11 kts 243°
2026-04-17 22:46 49.49530 11.09318 1052 ft 21 kts 275°
2026-04-17 22:47 49.49552 11.09074 1047 ft 23 kts 268°
2026-04-17 22:47 49.49566 11.08958 1045 ft 12 kts 279°
2026-04-17 22:47 49.49580 11.08796 1043 ft 19 kts 277°
2026-04-17 22:47 49.49601 11.08567 1039 ft 21 kts 279°
2026-04-17 22:48 49.49606 11.08388 1036 ft 15 kts 246°
2026-04-17 22:48 49.49534 11.08315 1035 ft 13 kts 242°
2026-04-17 22:48 49.49549 11.08138 1032 ft 19 kts 280°
2026-04-17 22:48 49.49566 11.07969 1031 ft 16 kts 278°
2026-04-17 22:49 49.49583 11.07792 1029 ft 6 kts 279°
2026-04-17 22:49 49.49577 11.07750 1029 ft 8 kts 234°
2026-04-17 22:49 49.49528 11.07726 1024 ft 0 kts 189°